When you browse on this site, cookies collect data to enhance your experience and personalize the content and advertising you see.
Visit our Privacy Policy to learn more. By continuing to use the site, you agree to this use of cookies and data.
  • In Romania
  • List of Countries
  • For 7 days
  • Water Temperature
  • Satellite Maps
  • Weather Map
  • Weather Widgets
  • user-avatar
    Login

    Hourly Weather Koniusza

    Today, 20 February, Wednesday

    Time Temperature Precipitation Wind Pressure Humidity
    00:00 +4°C° 0.4 mm 4 mps 733 mmHg 83%
    01:00 +3°C° 0.4 mm 5 mps 733 mmHg 85%
    02:00 +3°C° 0 mm 5 mps 734 mmHg 86%
    03:00 +2°C° 0 mm 5 mps 734 mmHg 88%
    04:00 +1°C° 0 mm 4 mps 734 mmHg 89%
    05:00 +1°C° 0 mm 5 mps 734 mmHg 88%
    06:00 +1°C° 0 mm 5 mps 734 mmHg 87%
    07:00 +1°C° 0 mm 5 mps 734 mmHg 86%
    08:00 +2°C° 0 mm 5 mps 735 mmHg 82%
    09:00 +2°C° 0 mm 6 mps 735 mmHg 78%
    10:00 +3°C° 0 mm 6 mps 735 mmHg 74%
    11:00 +3°C° 0 mm 6 mps 736 mmHg 72%
    12:00 +3°C° 0 mm 6 mps 736 mmHg 70%
    13:00 +4°C° 0 mm 6 mps 736 mmHg 68%
    14:00 +4°C° 0 mm 6 mps 736 mmHg 68%
    15:00 +3°C° 0 mm 6 mps 736 mmHg 68%
    16:00 +3°C° 0 mm 5 mps 736 mmHg 68%
    17:00 +3°C° 0 mm 5 mps 737 mmHg 71%
    18:00 +4°C° 0 mm 4 mps 737 mmHg 74%
    19:00 +3°C° 0 mm 3 mps 737 mmHg 77%
    20:00 +3°C° 0 mm 3 mps 738 mmHg 78%
    21:00 +3°C° 0 mm 4 mps 738 mmHg 78%
    22:00 +3°C° 0 mm 4 mps 738 mmHg 79%
    23:00 +3°C° 0 mm 4 mps 738 mmHg 80%

    Tomorrow, 21 February, Thursday

    Time Temperature Precipitation Wind Pressure Humidity
    00:00 +3°C° 0 mm 4 mps 739 mmHg 80%
    01:00 +3°C° 0 mm 4 mps 739 mmHg 81%
    02:00 +1°C° 0 mm 4 mps 739 mmHg 81%
    03:00 +1°C° 0 mm 4 mps 739 mmHg 82%
    04:00 +1°C° 0 mm 4 mps 739 mmHg 82%
    05:00 +1°C° 0 mm 4 mps 739 mmHg 81%
    06:00 +1°C° 0 mm 4 mps 739 mmHg 80%
    07:00 +1°C° 0 mm 4 mps 739 mmHg 79%
    08:00 +2°C° 0 mm 5 mps 739 mmHg 74%
    09:00 +3°C° 0 mm 5 mps 739 mmHg 70%
    10:00 +5°C° 0 mm 5 mps 738 mmHg 65%
    11:00 +4°C° 0.2 mm 6 mps 738 mmHg 65%
    12:00 +4°C° 0.2 mm 6 mps 738 mmHg 64%
    13:00 +5°C° 0.2 mm 6 mps 737 mmHg 64%
    14:00 +5°C° 0.5 mm 6 mps 737 mmHg 67%
    15:00 +4°C° 0.5 mm 7 mps 737 mmHg 70%
    16:00 +4°C° 0.5 mm 7 mps 736 mmHg 72%
    17:00 +4°C° 0.5 mm 7 mps 736 mmHg 74%
    18:00 +4°C° 0.5 mm 7 mps 736 mmHg 76%
    19:00 +3°C° 0.5 mm 7 mps 736 mmHg 78%
    20:00 +3°C° 0.4 mm 7 mps 736 mmHg 79%
    21:00 +3°C° 0.4 mm 7 mps 736 mmHg 81%
    22:00 +3°C° 0.4 mm 7 mps 736 mmHg 83%
    23:00 +4°C° 0.4 mm 6 mps 736 mmHg 85%

    Day after tomorrow, 22 February, Friday

    Time Temperature Precipitation Wind Pressure Humidity
    00:00 +4°C° 0.4 mm 6 mps 735 mmHg 87%
    01:00 +4°C° 0.4 mm 6 mps 735 mmHg 89%
    02:00 +4°C° 0.3 mm 6 mps 735 mmHg 89%
    03:00 +4°C° 0.3 mm 6 mps 735 mmHg 89%
    04:00 +4°C° 0.3 mm 6 mps 735 mmHg 89%
    05:00 +4°C° 0.9 mm 6 mps 735 mmHg 88%
    06:00 +3°C° 0.9 mm 7 mps 736 mmHg 87%
    07:00 +3°C° 0.9 mm 7 mps 737 mmHg 86%
    08:00 +2°C° 0.3 mm 7 mps 738 mmHg 82%
    09:00 -1°C° 0.3 mm 7 mps 739 mmHg 78%
    10:00 -2°C° 0.3 mm 6 mps 740 mmHg 74%
    11:00 -2°C° 0 mm 6 mps 741 mmHg 68%
    12:00 -2°C° 0 mm 6 mps 742 mmHg 62%
    13:00 -1°C° 0 mm 5 mps 743 mmHg 55%
    14:00 -1°C° 0 mm 5 mps 743 mmHg 55%
    15:00 -2°C° 0 mm 5 mps 744 mmHg 54%
    16:00 -3°C° 0 mm 6 mps 744 mmHg 53%
    17:00 -4°C° 0 mm 5 mps 745 mmHg 56%
    18:00 -5°C° 0 mm 5 mps 746 mmHg 58%
    19:00 -6°C° 0 mm 5 mps 746 mmHg 60%
    20:00 -6°C° 0 mm 5 mps 747 mmHg 58%
    21:00 -6°C° 0 mm 5 mps 747 mmHg 56%
    22:00 -7°C° 0 mm 4 mps 748 mmHg 54%
    23:00 -7°C° 0 mm 4 mps 748 mmHg 52%

    23 February, Saturday

    Time Temperature Precipitation Wind Pressure Humidity
    00:00 -7°C° 0 mm 4 mps 749 mmHg 49%
    01:00 -7°C° 0 mm 4 mps 749 mmHg 47%
    02:00 -6°C° 0 mm 3 mps 749 mmHg 45%
    03:00 -6°C° 0 mm 3 mps 749 mmHg 44%
    04:00 -7°C° 0 mm 3 mps 749 mmHg 43%
    05:00 -6°C° 0 mm 2 mps 750 mmHg 43%
    06:00 -6°C° 0 mm 2 mps 750 mmHg 43%
    07:00 -6°C° 0 mm 2 mps 750 mmHg 42%
    08:00 -5°C° 0 mm 2 mps 750 mmHg 38%
    09:00 -4°C° 0 mm 2 mps 750 mmHg 34%
    10:00 -4°C° 0 mm 3 mps 751 mmHg 30%
    11:00 -2°C° 0 mm 3 mps 750 mmHg 27%
    12:00 -2°C° 0 mm 3 mps 750 mmHg 25%
    13:00 -1°C° 0 mm 2 mps 750 mmHg 23%
    14:00 -1°C° 0 mm 2 mps 750 mmHg 24%
    15:00 -1°C° 0 mm 2 mps 750 mmHg 26%
    16:00 -1°C° 0 mm 2 mps 749 mmHg 28%
    17:00 -2°C° 0 mm 2 mps 749 mmHg 31%
    18:00 -1°C° 0 mm 1 mps 749 mmHg 34%
    19:00 -2°C° 0 mm 1 mps 750 mmHg 37%
    20:00 -2°C° 0 mm 1 mps 749 mmHg 38%
    21:00 -2°C° 0 mm 1 mps 749 mmHg 38%
    22:00 -2°C° 0 mm 1 mps 749 mmHg 38%
    23:00 -2°C° 0 mm 1 mps 749 mmHg 38%

    24 February, Sunday

    Time Temperature Precipitation Wind Pressure Humidity
    00:00 -2°C° 0 mm 1 mps 749 mmHg 38%
    01:00 -4°C° 0 mm 2 mps 749 mmHg 38%
    02:00 -4°C° 0 mm 2 mps 748 mmHg 38%
    03:00 -4°C° 0 mm 2 mps 748 mmHg 38%
    04:00 -4°C° 0 mm 2 mps 748 mmHg 38%
    05:00 -3°C° 0 mm 2 mps 748 mmHg 36%
    06:00 -3°C° 0 mm 2 mps 747 mmHg 35%
    07:00 -3°C° 0 mm 2 mps 747 mmHg 34%
    08:00 -2°C° 0 mm 3 mps 747 mmHg 32%
    09:00 -1°C° 0 mm 3 mps 747 mmHg 30%
    10:00 0°C° 0 mm 3 mps 746 mmHg 28%
    11:00 +1°C° 0 mm 3 mps 746 mmHg 28%
    12:00 +1°C° 0 mm 4 mps 746 mmHg 28%
    13:00 +4°C° 0 mm 4 mps 745 mmHg 28%
    14:00 +3°C° 0 mm 3 mps 745 mmHg 33%
    15:00 +3°C° 0 mm 3 mps 745 mmHg 39%
    16:00 +3°C° 0 mm 2 mps 745 mmHg 44%
    17:00 +3°C° 0 mm 2 mps 745 mmHg 48%
    18:00 +2°C° 0 mm 2 mps 745 mmHg 52%
    19:00 +1°C° 0 mm 2 mps 745 mmHg 56%
    20:00 +1°C° 0 mm 2 mps 745 mmHg 58%
    21:00 -1°C° 0 mm 2 mps 745 mmHg 59%
    22:00 +1°C° 0 mm 1 mps 745 mmHg 61%
    23:00 +1°C° 0 mm 1 mps 745 mmHg 62%

    25 February, Monday

    Time Temperature Precipitation Wind Pressure Humidity
    00:00 +1°C° 0 mm 1 mps 745 mmHg 63%
    01:00 +1°C° 0 mm 1 mps 745 mmHg 63%
    02:00 +1°C° 0 mm 1 mps 744 mmHg 64%
    03:00 +1°C° 0 mm 1 mps 744 mmHg 64%
    04:00 +1°C° 0 mm 1 mps 744 mmHg 65%
    05:00 -1°C° 0 mm 2 mps 744 mmHg 65%
    06:00 -1°C° 0 mm 2 mps 744 mmHg 66%
    07:00 -1°C° 0 mm 2 mps 744 mmHg 67%
    08:00 +1°C° 0 mm 2 mps 744 mmHg 63%
    09:00 +2°C° 0 mm 3 mps 744 mmHg 59%
    10:00 +3°C° 0 mm 3 mps 744 mmHg 55%
    11:00 +4°C° 0 mm 3 mps 744 mmHg 55%
    12:00 +5°C° 0 mm 3 mps 744 mmHg 54%
    13:00 +7°C° 0 mm 3 mps 743 mmHg 53%
    14:00 +6°C° 0 mm 4 mps 743 mmHg 56%
    15:00 +5°C° 0 mm 4 mps 743 mmHg 59%
    16:00 +5°C° 0 mm 4 mps 743 mmHg 61%
    17:00 +4°C° 0 mm 3 mps 743 mmHg 69%
    18:00 +3°C° 0 mm 3 mps 743 mmHg 76%
    19:00 +2°C° 0 mm 3 mps 743 mmHg 83%
    20:00 +2°C° 0 mm 3 mps 744 mmHg 86%
    21:00 +2°C° 0 mm 2 mps 744 mmHg 90%
    22:00 +2°C° 0 mm 2 mps 744 mmHg 93%
    23:00 +1°C° 0 mm 2 mps 743 mmHg 93%
    Show more